Weather History for KLRD - November, 2011

Change the Weather History Date:

Wednesday, November 16, 2011

  Actual Average Record
Temperature  
Mean Temperature 72 °F 66 °F  
Max Temperature 87 °F 76 °F 93 °F (1977)
Min Temperature 56 °F 55 °F 29 °F (1920)
Degree Days  
Heating Degree Days 0 3  
Month to date heating degree days 23 34  
Since 1 July heating degree days 32 46  
Cooling Degree Days 7 4  
Month to date cooling degree days 117 88  
Year to date cooling degree days 5582 4217  
Growing Degree Days 20 (Base 50)    
Moisture  
Dew Point 48 °F    
Average Humidity 47    
Maximum Humidity 83    
Minimum Humidity 24    
Precipitation  
Precipitation 0.00 in 0.04 in 2.12 in (2001)
Month to date precipitation 0.20 0.70  
Year to date precipitation 4.41 18.83  
Sea Level Pressure  
Sea Level Pressure 29.95 in    
Wind  
Wind Speed 6 mph (North)    
Max Wind Speed 15 mph    
Max Gust Speed 17 mph    
Visibility 10 miles    
Events      
T = Trace of Precipitation, MM = Missing Value Source: NWS Daily Summary

Daily Weather History Graph

Daily Weather History Graph

Search for Another Location

Airport or City:

Trip Planner

Search our weather history database for the weather conditions in past years. The results will help you decide how hot, cold, wet, or windy it might be!

Date:

Astronomy

Nov. 16, 2011 Rise Set
Actual Time 6:59 AM CST 5:45 PM CST
Civil Twilight 6:34 AM CST 6:10 PM CST
Nautical Twilight 6:06 AM CST 6:38 PM CST
Astronomical Twilight 5:38 AM CST 7:06 PM CST
Moon 10:56 PM CST (11/16) 11:38 AM CST (11/16)
Length of Visible Light 11h 35m
Length of Day
10h 46m
Waning Gibbous, 70% of the Moon is Illuminated
Nov 16
Waning Gibbous
Nov 18
Last Quarter
Nov 25
New
Dec 2
First Quarter
Dec 10
Full

Hourly Weather History & Observations

Time (CST) Temp. Dew Point Humidity Pressure Visibility Wind Dir Wind Speed Gust Speed Precip Events Conditions
12:56 AM 63.9 °F 52.9 °F 67% 29.83 in 10.0 mi SW 10.4 mph - N/A   Clear
1:56 AM 63.9 °F 50.9 °F 63% 29.83 in 10.0 mi WSW 6.9 mph - N/A   Clear
2:56 AM 61.0 °F 50.9 °F 69% 29.83 in 10.0 mi Calm Calm - N/A   Clear
3:56 AM 61.0 °F 52.0 °F 72% 29.84 in 10.0 mi SE 4.6 mph - N/A   Clear
4:56 AM 59.0 °F 52.0 °F 78% 29.85 in 10.0 mi Calm Calm - N/A   Clear
5:56 AM 57.2 °F 51.8 °F 82% 29.90 in 10.0 mi Calm Calm - N/A   Clear
6:56 AM 55.9 °F 50.9 °F 83% 29.90 in 10.0 mi Calm Calm - N/A   Clear
7:56 AM 59.0 °F 53.6 °F 82% 29.95 in 10.0 mi Calm Calm - N/A   Clear
8:56 AM 68.0 °F 52.9 °F 58% 29.94 in 10.0 mi NW 3.5 mph - N/A   Clear
9:56 AM 75.2 °F 51.8 °F 44% 29.99 in 10.0 mi NW 6.9 mph - N/A   Clear
10:56 AM 79.9 °F 50.9 °F 36% 29.96 in 10.0 mi NW 8.1 mph - N/A   Clear
11:56 AM 82.9 °F 46.9 °F 28% 29.94 in 10.0 mi North 8.1 mph - N/A   Clear
12:56 PM 84.9 °F 45.9 °F 26% 29.91 in 10.0 mi NE 6.9 mph - N/A   Clear
1:56 PM 86.0 °F 45.9 °F 25% 29.90 in 10.0 mi Calm Calm - N/A   Clear
2:56 PM 86.9 °F 46.9 °F 25% 29.90 in 10.0 mi WNW 3.5 mph - N/A   Clear
3:56 PM 86.9 °F 45.9 °F 24% 29.90 in 10.0 mi North 5.8 mph - N/A   Clear
4:56 PM 84.2 °F 44.6 °F 25% 29.95 in 10.0 mi North 8.1 mph - N/A   Clear
5:56 PM 79.9 °F 46.9 °F 31% 29.95 in 10.0 mi NNE 6.9 mph - N/A   Clear
6:56 PM 77.0 °F 45.9 °F 33% 30.00 in 10.0 mi NNE 9.2 mph - N/A   Clear
7:56 PM 73.9 °F 45.0 °F 35% 30.03 in 10.0 mi NNE 6.9 mph - N/A   Clear
8:56 PM 75.9 °F 43.9 °F 32% 30.05 in 10.0 mi North 13.8 mph - N/A   Clear
9:56 PM 75.2 °F 44.6 °F 34% 30.10 in 10.0 mi NNE 8.1 mph - N/A   Clear
10:56 PM 74.8 °F 41.0 °F 30% 30.08 in 10.0 mi North 8.1 mph - N/A   Clear
11:56 PM 69.8 °F 48.2 °F 46% 30.16 in 10.0 mi NE 18.4 mph 26.5 mph N/A   Clear